Wind_Speed
27 31 16 15 43 16 17 23 9 8 11 14 19 20 22 19 21 22 24 25 19 18 21 23 24 26 27 29 30 31 32 35 38 36 41 41 40 40 40 40 41 41 40
18 14 13 12 5 7 1 6 8 17 21 19 18 19 18 20 17 18 17 17 19 22 26 24 26 28 29 31 32 34 36 37 40 41 39 41 41 38 39 40 41 43 43
10 11 13 13 2 7 13 13 11 15 18 18 16 8 6 9 11 13 15 16 18 21 26 25 27 30 32 33 34 36 38 39 39 41 42 42 41 40 38 37 38 40 43
12 12 11 8 7 8 9 16 16 14 15 16 9 9 12 11 14 16 18 20 24 25 29 30 30 32 34 35 35 35 38 38 39 41 41 42 45 43 42 41 39 40 41
7 8 5 7 6 8 10 8 9 10 11 9 10 12 14 19 23 25 29 31 28 27 28 31 32 31 33 33 33 34 35 37 38 40 41 42 42 45 47 47 45 41 41
3 2 1 4 7 9 10 11 12 13 14 15 16 17 17 19 20 22 24 25 26 26 25 27 29 30 32 32 31 30 32 34 35 38 40 43 44 46 48 46 44 42 41
6 7 8 9 11 12 13 15 17 18 18 19 20 19 19 19 20 21 24 23 24 25 24 26 26 28 29 28 28 28 29 32 34 36 38 39 41 41 43 42 39 36 36
9 10 12 13 15 18 19 19 18 17 17 17 18 18 18 19 20 21 23 23 25 25 23 24 26 26 28 28 27 27 27 29 27 29 32 35 35 33 34 35 34 31 29
15 16 18 16 14 13 12 13 14 15 16 16 17 18 18 18 19 20 23 24 24 24 22 22 24 25 26 27 28 28 25 24 27 28 27 30 36 33 29 28 29 31 27
15 12 10 11 11 11 12 13 15 16 16 16 16 17 18 17 19 22 24 23 22 22 23 24 23 23 26 27 27 29 29 24 24 24 26 27 28 30 28 27 25 27 27
10 11 11 12 13 14 14 15 16 15 16 18 17 18 19 19 20 22 22 22 23 22 20 20 23 27 28 28 26 24 25 24 22 24 25 26 27 29 27 25 26 28 28
11 12 14 15 16 18 16 15 15 15 17 20 20 19 19 19 22 21 19 20 22 24 24 23 23 27 26 27 26 27 27 27 26 25 27 26 27 28 29 29 27 28 25
12 13 15 17 17 17 16 15 15 17 16 16 14 13 13 13 14 18 15 19 22 23 23 24 23 26 28 31 30 28 29 28 29 29 29 28 28 28 29 32 31 31 29
16 15 16 17 15 14 14 15 14 13 13 12 12 13 14 14 15 14 16 21 25 26 22 23 25 27 31 32 33 31 31 31 31 31 30 29 29 29 30 31 33 32 29
15 15 16 15 14 13 13 12 13 13 15 15 15 16 18 18 17 18 18 21 24 25 26 25 28 30 32 31 34 35 34 33 34 33 33 33 33 33 32 33 33 33 31
14 14 13 12 13 13 13 13 14 14 15 17 17 19 20 22 22 22 23 24 27 29 29 29 32 32 32 33 33 34 34 34 34 35 37 37 36 35 34 34 35 36 34
13 12 12 12 12 13 13 14 14 14 17 17 18 20 23 25 25 27 27 29 31 35 36 33 31 31 33 33 32 31 32 36 38 36 37 37 36 36 37 36 36 37 37
11 11 11 12 12 12 14 15 18 20 20 20 22 26 24 22 24 25 25 27 28 30 31 31 33 34 36 32 32 32 31 32 35 43 44 42 36 40 40 36 35 37 38
10 10 12 13 12 13 16 19 20 22 24 23 22 21 22 23 21 21 23 26 29 30 29 31 33 36 36 35 37 37 38 38 36 37 41 47 49 45 43 38 37 38 42
11 11 11 13 13 17 20 23 24 25 25 25 25 24 22 22 25 28 31 33 35 36 40 43 40 39 39 39 45 47 47 47 46 47 45 44 47 51 50 46 40 42 44
10 11 12 16 18 20 19 19 21 23 24 25 27 28 31 32 34 36 38 41 46 50 52 47 51 51 50 48 39 50 52 52 51 54 49 48 48 49 53 51 49 46 40
13 14 15 16 17 18 19 21 23 25 26 27 28 30 35 41 38 35 40 46 45 52 52 45 42 36 40 46 57 57 58 55 44 41 43 42 41 44 48 48 46 41 41
16 16 18 19 20 22 24 25 27 30 32 36 41 49 41 41 42 45 49 44 42 45 38 34 38 45 44 40 34 34 31 31 34 33 30 34 33 33 34 36 35 38 36
20 21 21 22 23 25 26 27 29 35 43 47 49 49 42 53 42 33 38 39 37 33 37 39 35 31 32 27 25 28 27 26 28 27 26 26 28 31 31 30 28 25 27
23 24 23 24 26 28 30 34 42 44 45 45 44 45 42 37 38 33 34 34 30 30 26 25 27 25 26 28 27 27 29 26 26 26 28 28 26 27 27 26 24 23 26
24 25 27 28 31 36 38 41 43 43 43 41 44 39 38 38 40 31 29 28 26 28 27 25 26 26 27 31 29 28 29 29 28 28 27 25 25 23 23 24 22 20 19
Wind_Direction
290 308 348 287 273 282 322 328 356 320 270 263 276 284 280 249 250 262 274 275 273 277 290 290 289 294 299 300 300 299 298 296 295 293 294 292 291 289 287 283 280 277 273
300 311 294 308 280 254 259 247 273 283 273 275 285 272 272 270 265 277 271 271 281 296 297 293 296 298 299 301 303 303 302 302 302 300 298 296 295 293 289 286 283 280 277
307 301 281 265 249 248 251 239 253 287 303 302 278 283 295 294 287 284 290 294 300 301 300 302 301 303 304 305 307 308 306 306 306 305 305 304 302 298 292 286 280 277 277
296 288 276 260 282 258 288 272 272 278 273 274 292 292 295 287 297 299 297 300 301 301 303 302 302 306 307 306 308 309 308 307 306 305 306 305 306 304 301 297 286 282 276
267 265 264 304 281 292 282 302 318 305 299 293 283 288 286 287 292 294 295 297 301 300 301 304 305 307 308 309 309 308 307 307 309 309 308 307 307 305 306 303 298 289 280
258 218 231 267 273 288 303 306 304 302 301 299 296 297 297 296 295 294 295 299 302 304 307 307 309 309 310 310 310 309 309 309 309 308 309 309 308 307 305 303 299 293 284
233 256 271 280 288 292 293 295 297 298 298 297 298 299 300 300 299 300 301 305 307 310 313 310 309 308 307 307 310 311 311 308 310 312 310 310 310 309 304 301 298 294 287
267 276 282 286 288 291 293 294 295 296 295 295 297 296 296 295 294 298 302 305 306 309 312 310 307 306 306 305 307 310 307 307 313 316 318 319 319 316 308 304 302 298 294
286 291 292 295 294 291 287 292 297 297 299 302 302 300 299 297 295 296 297 298 301 307 311 309 307 307 308 306 307 308 312 314 315 323 322 331 335 329 317 309 304 300 296
295 288 284 283 286 291 295 296 295 292 286 293 293 293 293 295 293 290 287 288 292 301 306 308 303 303 307 309 311 311 313 324 325 327 331 338 341 342 326 319 311 303 303
283 287 291 298 306 306 302 298 296 291 295 296 296 295 296 294 289 283 283 285 293 295 298 300 300 308 312 316 314 318 322 331 336 331 335 341 341 343 342 341 335 318 308
291 293 297 298 301 301 301 299 299 297 297 299 298 296 291 290 282 281 279 281 289 289 294 296 297 301 309 317 308 312 316 320 325 329 331 333 338 343 339 341 339 345 328
287 287 293 298 298 299 301 302 300 303 308 308 303 301 303 297 292 292 279 278 284 295 298 294 289 296 304 309 311 310 310 314 318 320 322 325 329 334 340 343 338 341 338
298 293 291 291 296 301 303 305 308 306 301 297 294 291 289 291 286 284 286 300 302 301 295 296 294 296 296 296 302 307 308 308 314 317 317 317 320 325 330 338 339 335 333
293 290 291 299 304 300 302 304 305 311 308 303 294 287 286 284 280 274 280 299 305 299 302 301 303 302 306 303 303 305 303 307 311 316 317 317 316 317 322 327 331 335 332
290 293 299 300 298 299 299 303 306 306 309 314 317 313 309 301 301 299 299 297 292 297 292 296 304 303 298 300 300 297 296 298 303 306 308 312 315 316 314 319 327 333 333
292 294 297 301 303 303 305 313 315 311 310 310 311 310 309 309 305 300 295 290 287 288 289 293 295 297 298 298 292 291 291 296 300 301 302 305 313 319 321 320 323 327 331
285 291 299 301 303 309 315 318 316 313 306 304 308 319 319 304 296 297 296 297 301 301 299 293 293 292 298 292 290 287 288 288 291 298 300 303 305 309 313 316 318 322 326
289 296 303 306 304 312 316 312 313 314 312 309 309 312 320 320 310 300 300 302 301 298 299 293 289 292 293 288 287 284 285 287 286 285 285 295 298 298 301 305 310 313 319
291 301 304 307 305 307 310 310 307 303 302 303 304 304 305 305 303 306 305 303 300 298 298 294 289 286 283 280 283 282 282 283 288 289 287 285 286 292 295 299 302 304 308
296 304 308 308 312 313 315 320 319 316 309 302 300 301 301 299 300 300 299 296 296 293 289 284 284 287 286 291 276 275 276 278 278 283 281 281 276 277 282 289 292 299 300
302 304 298 299 299 301 304 305 304 306 306 304 302 299 298 300 299 297 298 299 305 304 307 300 290 291 301 295 292 287 278 283 289 291 280 278 273 275 280 284 290 294 292
312 306 301 300 301 302 309 309 305 301 298 297 292 300 302 286 293 298 298 309 305 301 298 302 299 300 301 303 292 293 301 304 299 294 296 296 294 293 291 286 289 289 289
325 320 309 299 298 297 300 302 298 298 304 305 306 322 317 313 303 311 315 309 308 302 298 300 305 303 303 303 297 306 303 304 301 304 303 304 307 304 294 287 289 284 291
326 318 306 299 299 300 297 302 311 311 307 309 310 313 311 311 314 314 311 308 308 305 305 307 307 305 302 300 300 300 305 304 306 307 305 304 305 303 306 303 295 288 282
317 315 312 308 306 306 304 305 307 308 310 309 310 309 307 312 311 306 307 307 306 308 306 305 303 304 303 303 305 304 304 306 308 308 309 307 303 301 294 293 292 286 286
Height
3182 3174 3168 3181 3182 3180 3176 3173 3176 3175 3178 3181 3181 3182 3182 3179 3181 3184 3182 3183 3183 3182 3180 3178 3177 3176 3175 3174 3173 3171 3169 3166 3163 3166 3162 3159 3158 3156 3153 3152 3150 3151 3151
3174 3170 3172 3177 3174 3173 3171 3173 3172 3175 3177 3176 3176 3178 3176 3176 3176 3176 3175 3175 3177 3177 3176 3173 3170 3169 3168 3165 3164 3162 3158 3155 3151 3150 3152 3150 3146 3144 3142 3140 3138 3135 3135
3169 3171 3173 3175 3173 3170 3168 3166 3168 3168 3168 3170 3170 3171 3172 3173 3173 3174 3172 3172 3172 3173 3172 3167 3164 3162 3161 3159 3157 3153 3150 3146 3140 3137 3137 3134 3133 3131 3129 3127 3125 3122 3121
3169 3169 3170 3170 3168 3169 3167 3167 3165 3167 3167 3167 3169 3170 3171 3170 3169 3169 3169 3167 3167 3166 3166 3163 3159 3155 3153 3150 3148 3145 3142 3137 3132 3128 3126 3125 3119 3117 3114 3112 3111 3109 3106
3166 3167 3167 3166 3166 3166 3165 3164 3163 3164 3165 3165 3166 3167 3167 3166 3164 3164 3163 3162 3161 3159 3157 3155 3151 3147 3145 3142 3140 3136 3133 3128 3123 3119 3118 3114 3111 3105 3101 3097 3092 3091 3092
3165 3164 3164 3165 3165 3163 3162 3161 3161 3162 3162 3162 3162 3161 3160 3159 3156 3156 3154 3154 3153 3152 3151 3146 3144 3140 3136 3133 3133 3130 3127 3120 3116 3110 3107 3102 3100 3095 3089 3082 3079 3076 3075
3165 3164 3163 3162 3161 3160 3158 3157 3157 3157 3157 3157 3156 3154 3152 3152 3150 3148 3146 3146 3146 3145 3142 3139 3138 3135 3132 3128 3127 3123 3119 3115 3110 3104 3099 3095 3089 3083 3076 3071 3068 3065 3063
3163 3162 3161 3160 3159 3157 3155 3154 3154 3153 3153 3151 3149 3147 3147 3147 3145 3143 3141 3141 3139 3138 3137 3135 3133 3131 3126 3123 3120 3117 3114 3110 3105 3099 3093 3087 3081 3074 3067 3063 3059 3054 3054
3159 3157 3156 3154 3152 3151 3151 3150 3149 3148 3146 3144 3143 3141 3141 3140 3139 3137 3136 3135 3133 3133 3132 3130 3127 3124 3120 3118 3114 3111 3107 3103 3100 3094 3087 3081 3072 3065 3061 3057 3053 3047 3047
3152 3151 3151 3150 3149 3148 3146 3146 3145 3144 3142 3141 3139 3138 3137 3135 3134 3134 3132 3131 3130 3128 3128 3124 3121 3121 3115 3110 3107 3105 3102 3095 3091 3086 3082 3074 3068 3063 3055 3050 3046 3042 3037
3147 3146 3146 3144 3143 3143 3142 3142 3141 3139 3138 3136 3135 3133 3130 3128 3129 3130 3126 3125 3126 3125 3124 3122 3119 3113 3110 3105 3102 3099 3094 3090 3084 3081 3075 3072 3066 3060 3054 3047 3040 3034 3031
3144 3143 3142 3141 3140 3138 3137 3136 3135 3134 3132 3130 3128 3125 3124 3123 3123 3122 3121 3121 3120 3119 3117 3116 3113 3109 3105 3101 3097 3093 3088 3084 3081 3077 3073 3068 3061 3055 3050 3045 3038 3032 3027
3141 3140 3138 3137 3136 3134 3133 3131 3130 3127 3125 3124 3124 3124 3123 3121 3120 3117 3116 3116 3115 3112 3111 3109 3106 3103 3099 3095 3092 3088 3082 3079 3075 3072 3067 3061 3056 3051 3045 3039 3033 3028 3023
3136 3135 3134 3133 3132 3130 3128 3127 3125 3124 3123 3122 3122 3120 3119 3119 3117 3116 3114 3110 3108 3105 3103 3101 3099 3096 3093 3089 3085 3080 3076 3072 3069 3065 3060 3055 3050 3046 3041 3035 3028 3023 3018
3132 3131 3130 3128 3127 3126 3124 3123 3122 3121 3119 3117 3117 3115 3114 3113 3112 3109 3107 3105 3102 3099 3095 3093 3091 3087 3083 3080 3076 3073 3070 3065 3060 3056 3052 3049 3044 3040 3035 3029 3023 3017 3011
3129 3127 3126 3125 3123 3122 3121 3119 3117 3116 3115 3113 3111 3108 3106 3104 3103 3101 3099 3097 3094 3091 3088 3086 3083 3080 3077 3073 3070 3067 3063 3059 3055 3050 3046 3041 3037 3032 3027 3022 3017 3011 3005
3124 3123 3122 3121 3120 3118 3117 3115 3114 3113 3111 3109 3107 3104 3101 3098 3096 3093 3091 3088 3086 3083 3079 3077 3074 3072 3069 3065 3062 3058 3054 3050 3047 3043 3040 3034 3029 3024 3020 3015 3010 3005 3001
3121 3120 3119 3117 3116 3115 3113 3112 3110 3108 3106 3104 3102 3097 3093 3090 3087 3085 3082 3079 3077 3073 3070 3067 3065 3062 3059 3056 3053 3049 3046 3042 3038 3032 3029 3026 3022 3018 3013 3009 3004 2999 2994
3118 3116 3115 3114 3113 3112 3110 3108 3106 3103 3100 3097 3095 3092 3087 3083 3080 3078 3076 3072 3069 3066 3063 3059 3057 3053 3048 3045 3041 3038 3034 3030 3028 3025 3021 3015 3011 3008 3005 3001 2997 2992 2986
3114 3113 3111 3110 3109 3107 3105 3102 3100 3097 3095 3092 3089 3085 3082 3078 3074 3070 3067 3063 3059 3055 3052 3048 3044 3040 3036 3032 3028 3024 3020 3018 3015 3011 3007 3004 3002 2997 2993 2990 2988 2983 2979
3110 3109 3108 3106 3104 3102 3099 3097 3094 3091 3087 3084 3081 3078 3073 3069 3065 3062 3058 3054 3048 3043 3037 3031 3026 3023 3018 3015 3012 3006 3004 3002 2999 2996 2991 2990 2988 2984 2982 2979 2977 2975 2970
3107 3105 3105 3104 3102 3099 3096 3093 3090 3086 3082 3079 3075 3071 3063 3058 3053 3048 3044 3037 3032 3025 3020 3013 3011 3008 3004 3001 2996 2992 2989 2986 2982 2978 2977 2974 2971 2969 2967 2965 2964 2961 2959
3103 3101 3100 3098 3096 3093 3090 3088 3084 3080 3075 3070 3063 3056 3051 3046 3038 3034 3029 3023 3019 3013 3009 3003 2999 2996 2992 2987 2982 2980 2977 2973 2970 2968 2964 2962 2959 2956 2955 2952 2950 2948 2947
3099 3097 3094 3093 3090 3087 3084 3080 3077 3071 3065 3057 3052 3045 3038 3032 3026 3020 3016 3012 3007 3002 2997 2993 2988 2985 2982 2978 2974 2971 2968 2966 2963 2960 2956 2953 2949 2947 2943 2940 2939 2937 2936
3095 3092 3090 3087 3084 3080 3076 3071 3065 3059 3054 3048 3041 3034 3028 3023 3017 3010 3007 3002 2996 2992 2987 2984 2980 2977 2973 2970 2967 2964 2961 2958 2955 2951 2948 2945 2941 2938 2935 2933 2929 2927 2927
3090 3087 3083 3080 3076 3072 3067 3061 3055 3048 3042 3036 3030 3024 3019 3013 3008 3002 2997 2993 2988 2984 2980 2977 2973 2969 2966 2961 2959 2956 2953 2950 2946 2942 2939 2937 2934 2931 2928 2926 2924 2922 2920